INTELSAT 21 (IS-21)

Last updated on Thu Nov 21 2024 00:02:42 GMT+0000 (Coordinated Universal Time)

1 38749U 12045A 24324.48521725 -.00000283 00000+0 00000+0 0 9994 2 38749 0.0132 295.6516 0002734 305.4140 294.6275 1.00271361 44763
UTC large
Height (km)
Speed (km/s)
/
Latitude / Longitude
Inclination (degrees)
Orbital Period (minutes)
Azimuth
Elevation
Range (km)
Doppler Factor

Next 0 passes for location: London (51.5072 / 0.1276)

Sorry there are no passes over London.